Location: Unspecified
(0.0000°N, 0.0000°E)
Time: 16:02:33
(UTC+02:00)

N. Korean satellite - Visible Passes

Search period start: 22 May 2018 00:00
Search period end: 01 June 2018 00:00
Orbit: 458 x 514 km, 97.2° (Epoch: 22 May)

Date Brightness Start Highest point End Pass type
(mag) Time Alt. Az. Time Alt. Az. Time Alt. Az.
22 May 9.5 20:56:25 10° SW 20:58:31 15° WSW 21:00:35 10° WNW visible
23 May 8.1 20:31:18 10° S 20:34:35 37° WSW 20:37:48 10° NNW visible
26 May 9.5 07:31:49 10° NE 07:34:29 19° ESE 07:37:10 10° SSE visible
26 May 9.4 20:53:39 10° SW 20:55:54 16° WSW 20:58:07 10° WNW visible
27 May 7.9 20:28:39 10° S 20:31:57 40° W 20:35:12 10° NNW visible
30 May 9.6 07:29:19 10° ENE 07:31:52 18° ESE 07:34:25 10° SE visible
30 May 9.4 20:50:51 10° SW 20:53:14 18° WSW 20:55:36 10° WNW visible
31 May 7.7 20:25:56 10° S 20:29:16 45° W 20:32:32 10° NNW visible
